Location: Jonesport
(44.5330°N, 67.5990°W)
Time: 10:46:28
(UTC-04:00)

Iridium 35 - Visible Passes

Search period start: 26 September 2017 00:00
Search period end: 06 October 2017 00:00
Orbit: 776 x 779 km, 86.4° (Epoch: 26 September)

Date Brightness Start Highest point End Pass type
(mag) Time Alt. Az. Time Alt. Az. Time Alt. Az.
26 Sep 7.1 05:24:19 10° NNE 05:28:59 32° ENE 05:33:37 10° SE visible
26 Sep 8.0 20:05:31 10° WSW 20:08:52 17° WNW 20:12:15 10° NNW visible
27 Sep 8.0 04:51:33 10° NNE 04:55:10 19° ENE 04:58:46 10° ESE visible
27 Sep 7.2 19:30:31 10° SW 19:35:01 29° WNW 19:39:34 10° NNW visible
28 Sep 8.6 04:20:28 10° ENE 04:21:12 10° ENE 04:21:55 10° ENE visible
28 Sep 6.1 18:56:15 10° SSW 19:01:19 52° W 19:06:25 10° N visible
29 Sep 6.3 05:24:12 10° N 05:29:12 45° E 05:34:11 10° SSE visible
29 Sep 8.4 20:07:15 10° W 20:09:14 12° WNW 20:11:13 10° NW visible
30 Sep 7.4 04:51:08 10° NNE 04:55:27 26° ENE 04:59:46 10° SE visible
30 Sep 7.8 19:31:23 10° WSW 19:35:17 21° WNW 19:39:15 10° NNW visible
01 Oct 8.2 04:18:39 10° NE 04:21:35 15° ENE 04:24:30 10° ESE visible
01 Oct 6.8 18:56:43 10° SSW 19:01:30 36° W 19:06:20 10° NNW visible
02 Oct 5.6 05:24:10 10° N 05:29:22 64° E 05:34:32 10° SSE visible
03 Oct 6.7 04:50:54 10° NNE 04:55:42 36° E 05:00:29 10° SE visible
03 Oct 8.2 19:32:39 10° WSW 19:35:37 15° WNW 19:38:38 10° NW visible
04 Oct 7.6 04:18:01 10° NNE 04:21:55 21° ENE 04:25:47 10° ESE visible
04 Oct 5.2 05:57:54 10° NNW 06:02:57 51° W 06:07:58 10° SSW visible
04 Oct 7.5 18:57:25 10° SW 19:01:45 26° WNW 19:06:07 10° NNW visible
05 Oct 8.3 03:46:07 10° NE 03:47:58 12° ENE 03:49:50 10° E visible
05 Oct 5.0 05:24:14 10° N 05:29:29 90° ENE 05:34:43 10° S visible
05 Oct 6.4 18:23:02 10° SSW 18:28:01 46° W 18:33:02 10° N visible
